Dubuque, IA

4:49 PM CDT on September 24, 2017 (GMT -0500)
Dubuque Regional

Weather History for KDBQ - May, 2013

Change the Weather History Date:

Thursday, May 2, 2013

  Actual Average Record
Temperature  
Mean Temperature 40 °F 54 °F  
Max Temperature 45 °F 65 °F 88 °F (1901)
Min Temperature 34 °F 44 °F 24 °F (2005)
Degree Days  
Heating Degree Days 25 11  
Month to date heating degree days 29 22  
Since 1 July heating degree days 7069 6843  
Cooling Degree Days 0 0  
Month to date cooling degree days 0 0  
Year to date cooling degree days 8 5  
Moisture  
Dew Point 37 °F    
Average Humidity 86    
Maximum Humidity 100    
Minimum Humidity 71    
Precipitation  
Precipitation 0.25 in 0.14 in 1.45 in (1915)
Month to date precipitation 0.25 0.27  
Year to date precipitation 14.78 8.95  
Snow  
Snow 0.00 in 0.00 in - ()
Month to date snowfall 0.0 0.0  
Since 1 July snowfall 54.5 41.9  
Snow Depth 0.00 in    
Sea Level Pressure  
Sea Level Pressure 30.25 in    
Wind  
Wind Speed 19 mph (North)    
Max Wind Speed 32 mph    
Max Gust Speed 37 mph    
Visibility 7 miles    
Events Rain , Snow    
T = Trace of Precipitation, MM = Missing Value Source: NWS Daily Summary

Daily Weather History Graph

Daily Weather History Graph

Search for Another Location

Airport or City:

Trip Planner

Search our weather history database for the weather conditions in past years. The results will help you decide how hot, cold, wet, or windy it might be!

Date:

Astronomy

May. 02, 2013 Rise Set
Actual Time 5:56 AM CDT 8:03 PM CDT
Civil Twilight 5:25 AM CDT 8:34 PM CDT
Nautical Twilight 4:47 AM CDT 9:12 PM CDT
Astronomical Twilight 4:06 AM CDT 9:54 PM CDT
Moon 1:52 AM CDT (5/2) 12:45 PM CDT (5/2)
Length of Visible Light 15h 09m
Length of Day
14h 07m
Waning Gibbous, 47% of the Moon is Illuminated
May 2
Waning Gibbous
May 9
New
May 17
First Quarter
May 24
Full
May 31
Last Quarter

Hourly Weather History & Observations

Time (CDT) Temp. Windchill Dew Point Humidity Pressure Visibility Wind Dir Wind Speed Gust Speed Precip Events Conditions
12:53 AM 46.0 °F 37.0 °F 37.9 °F 73% 30.18 in 10.0 mi NNE 27.6 mph 34.5 mph N/A   Mostly Cloudy
1:53 AM 44.1 °F 35.0 °F 37.0 °F 76% 30.19 in 10.0 mi NNE 24.2 mph 33.4 mph N/A   Clear
2:53 AM 43.0 °F 32.9 °F 37.0 °F 80% 30.18 in 10.0 mi NNE 27.6 mph 34.5 mph N/A   Clear
3:53 AM 42.1 °F 31.5 °F 36.0 °F 79% 30.18 in 10.0 mi NNE 28.8 mph 35.7 mph N/A   Clear
4:53 AM 41.0 °F 30.2 °F 36.0 °F 82% 30.19 in 10.0 mi NNE 27.6 mph 33.4 mph N/A   Mostly Cloudy
5:53 AM 41.0 °F 31.4 °F 35.1 °F 79% 30.22 in 10.0 mi NNE 21.9 mph 32.2 mph N/A   Mostly Cloudy
6:53 AM 42.1 °F 32.3 °F 35.1 °F 76% 30.24 in 10.0 mi NNE 24.2 mph 33.4 mph N/A   Mostly Cloudy
7:28 AM 39.2 °F 30.2 °F 37.4 °F 93% 30.27 in 4.0 mi North 17.3 mph - 0.13 in Rain Light Rain
7:53 AM 39.9 °F 30.5 °F 37.9 °F 93% 30.28 in 4.0 mi NNE 19.6 mph - 0.15 in Rain Light Rain
8:05 AM 39.2 °F 30.5 °F 37.4 °F 93% 30.26 in 10.0 mi NNE 16.1 mph 24.2 mph 0.00 in   Overcast
8:22 AM 39.2 °F 30.8 °F 37.4 °F 93% 30.28 in 10.0 mi North 15.0 mph - 0.01 in   Overcast
8:53 AM 39.9 °F 30.5 °F 37.9 °F 93% 30.30 in 10.0 mi North 19.6 mph - 0.01 in   Overcast
9:53 AM 41.0 °F 31.4 °F 37.9 °F 89% 30.29 in 10.0 mi North 21.9 mph 28.8 mph N/A   Overcast
10:08 AM 39.2 °F 29.3 °F 37.4 °F 93% 30.27 in 10.0 mi NNE 20.7 mph 28.8 mph N/A   Overcast
10:43 AM 39.2 °F 29.0 °F 37.4 °F 93% 30.25 in 5.0 mi North 21.9 mph 27.6 mph 0.06 in Rain Light Rain
10:53 AM 39.9 °F 30.8 °F 37.9 °F 93% 30.30 in 5.0 mi NNE 18.4 mph 25.3 mph 0.07 in Rain Light Rain
11:02 AM 39.2 °F 30.2 °F 37.4 °F 93% 30.27 in 8.0 mi NNE 17.3 mph 24.2 mph 0.00 in Rain Light Rain
11:53 AM 41.0 °F 33.1 °F 39.0 °F 93% 30.29 in 10.0 mi North 15.0 mph 28.8 mph 0.00 in   Overcast
12:00 PM 41.0 °F 33.1 °F 39.2 °F 93% 30.27 in 10.0 mi North 15.0 mph - N/A   Overcast
12:53 PM 39.9 °F 31.4 °F 37.9 °F 93% 30.30 in 10.0 mi North 16.1 mph 24.2 mph N/A   Overcast
1:53 PM 41.0 °F 32.2 °F 37.0 °F 86% 30.30 in 10.0 mi North 18.4 mph 26.5 mph N/A   Overcast
2:53 PM 39.0 °F 31.4 °F 39.0 °F 100% 30.29 in 3.0 mi North 12.7 mph - N/A   Overcast
3:00 PM 39.2 °F 30.5 °F 39.2 °F 100% 30.26 in 2.5 mi North 16.1 mph - N/A   Overcast
3:18 PM 39.2 °F 29.3 °F 37.4 °F 93% 30.26 in 3.0 mi North 20.7 mph 26.5 mph N/A   Overcast
3:49 PM 39.2 °F 30.5 °F 37.4 °F 93% 30.25 in 2.0 mi North 16.1 mph 25.3 mph N/A   Overcast
3:53 PM 39.0 °F 30.6 °F 37.9 °F 96% 30.27 in 2.5 mi North 15.0 mph 25.3 mph N/A   Overcast
4:04 PM 39.2 °F 29.6 °F 37.4 °F 93% 30.25 in 3.0 mi North 19.6 mph 23.0 mph N/A   Overcast
4:25 PM 37.4 °F 26.9 °F 37.4 °F 100% 30.26 in 2.5 mi North 20.7 mph 25.3 mph N/A   Overcast
4:36 PM 37.4 °F 28.2 °F 37.4 °F 100% 30.25 in 3.0 mi North 16.1 mph 26.5 mph N/A   Overcast
4:53 PM 37.9 °F 27.9 °F 37.0 °F 97% 30.29 in 2.0 mi North 19.6 mph - N/A   Overcast
5:24 PM 37.4 °F 27.8 °F 37.4 °F 100% 30.25 in 1.8 mi North 17.3 mph 26.5 mph N/A   Overcast
5:38 PM 37.4 °F 26.9 °F 37.4 °F 100% 30.25 in 2.0 mi North 20.7 mph 27.6 mph N/A   Overcast
5:53 PM 37.0 °F 27.0 °F 36.0 °F 96% 30.28 in 2.5 mi North 18.4 mph 27.6 mph N/A   Overcast
6:44 PM 37.4 °F 27.5 °F 35.6 °F 93% 30.23 in 3.0 mi North 18.4 mph 25.3 mph N/A   Overcast
6:53 PM 37.0 °F 26.4 °F 36.0 °F 96% 30.26 in 4.0 mi North 20.7 mph 28.8 mph N/A   Overcast
7:53 PM 36.0 °F 25.3 °F 35.1 °F 97% 30.27 in 10.0 mi North 19.6 mph 31.1 mph N/A   Overcast
8:53 PM 36.0 °F 26.3 °F 35.1 °F 97% 30.27 in 9.0 mi North 16.1 mph 26.5 mph N/A   Overcast
9:53 PM 35.1 °F 24.1 °F 34.0 °F 96% 30.28 in 7.0 mi North 19.6 mph 26.5 mph N/A   Overcast
10:53 PM 35.1 °F 24.8 °F 34.0 °F 96% 30.25 in 3.0 mi NNE 17.3 mph 26.5 mph 0.00 in Snow Light Snow
11:32 PM 35.6 °F 25.9 °F 33.8 °F 93% 30.22 in 4.0 mi NNE 16.1 mph 28.8 mph 0.01 in Rain Light Freezing Rain
11:53 PM 34.0 °F 24.2 °F 34.0 °F 100% 30.23 in 5.0 mi NNE 15.0 mph 24.2 mph 0.01 in   Overcast